Wind_Speed
39 39 36 29 28 28 29 30 31 33 34 34 34 33 32 30 30 30 30 32 33 34 34 36 38 41 44 45 46 48 50 51 53 55 55 57 59 62 64 65 66 67 67
42 39 36 33 31 31 32 34 35 37 39 40 40 39 38 37 36 36 36 36 36 36 37 39 41 44 47 48 50 52 53 54 55 57 58 58 60 62 64 66 67 68 69
45 43 39 37 34 33 33 36 37 38 40 42 44 44 44 43 42 42 41 40 39 39 40 42 44 47 49 50 51 52 53 54 55 57 58 58 59 60 64 66 68 69 70
42 42 38 36 36 35 34 36 38 39 41 44 45 46 47 47 47 47 46 44 43 42 42 43 45 48 49 49 51 50 51 53 54 56 58 60 61 62 64 65 66 67 68
37 39 37 37 38 36 33 35 38 41 43 45 47 48 49 50 51 51 50 47 44 44 44 45 47 48 48 48 49 51 53 56 58 60 61 63 63 64 64 64 66 68 69
33 36 35 34 35 34 34 36 39 42 44 45 47 49 50 51 52 52 50 48 45 46 47 47 46 46 47 48 50 53 55 57 60 62 63 63 63 64 65 66 68 70 70
36 38 36 34 33 34 35 36 38 40 42 44 47 48 49 50 50 48 46 45 46 47 47 46 45 46 48 50 52 55 57 59 61 62 62 62 63 65 67 70 71 71 70
39 38 36 32 31 31 33 35 37 40 42 44 45 46 47 47 46 45 44 45 47 47 46 47 49 51 52 54 55 58 60 61 61 60 60 62 64 68 70 71 71 70 67
32 32 31 30 29 30 32 34 35 37 39 41 42 43 44 44 43 43 44 45 47 49 50 51 53 54 55 56 58 60 60 60 59 59 61 64 68 70 71 71 71 69 66
25 27 28 28 28 30 31 32 34 36 38 39 40 41 43 42 42 43 45 48 51 53 54 55 55 55 56 57 58 58 57 57 59 61 64 67 68 69 69 69 69 68 67
26 27 28 28 29 30 31 32 34 36 38 40 41 42 43 42 43 46 49 51 53 54 54 54 54 55 56 56 56 55 56 58 60 63 65 66 67 68 68 67 66 66 66
27 27 28 29 30 31 32 34 36 38 40 42 43 45 46 47 49 50 51 52 53 53 53 54 55 56 56 55 54 55 57 59 61 63 65 65 66 65 65 65 64 64 63
24 25 28 30 32 34 35 37 39 40 42 44 46 48 49 50 50 51 52 53 53 54 57 59 59 58 56 54 54 56 58 60 62 63 64 63 63 63 63 62 60 57 54
25 27 30 33 36 38 39 40 41 44 47 50 51 51 51 51 52 53 54 54 56 59 63 65 62 58 53 53 55 57 59 61 62 62 62 62 62 61 59 54 50 47 46
27 30 33 36 38 39 40 42 44 49 52 55 54 53 53 53 54 55 56 58 61 64 64 62 57 52 51 53 56 58 59 60 60 60 61 60 57 54 49 45 43 43 41
32 34 36 39 40 42 44 47 50 53 56 56 54 54 55 56 57 59 62 64 63 60 57 52 49 50 51 54 56 58 58 58 59 58 57 53 48 44 42 40 39 39 35
42 41 43 44 46 48 50 52 54 55 55 53 54 55 58 59 61 63 63 60 56 50 46 46 49 51 52 54 55 56 56 56 56 53 48 44 41 40 37 35 34 32 27
48 48 49 50 52 53 54 54 53 52 51 50 52 55 58 59 58 57 54 50 47 44 45 47 50 52 52 53 53 53 53 52 48 44 39 37 36 35 32 29 26 21 16
50 50 50 50 51 50 50 48 47 47 47 49 52 55 57 56 53 50 46 43 43 44 46 48 50 51 51 51 50 49 46 43 38 35 33 33 32 30 26 20 15 12 9
47 46 45 44 43 43 43 44 45 45 46 49 52 54 54 51 48 44 43 43 44 46 48 48 49 50 49 48 45 41 37 33 30 28 29 29 26 21 16 11 7 4 2
43 42 41 41 41 41 41 41 41 42 45 49 51 52 50 47 44 42 42 44 46 47 48 49 48 46 43 40 36 32 28 24 23 23 23 21 17 12 8 5 4 6 6
37 37 37 36 36 36 36 37 40 43 45 46 45 43 41 41 42 43 44 45 47 47 47 45 42 38 34 31 27 23 20 18 18 18 15 12 9 7 7 8 9 10 10
31 31 31 31 31 32 34 37 39 41 41 39 38 37 38 39 41 43 44 45 45 43 39 35 31 28 25 23 20 17 15 15 14 11 7 7 8 8 10 11 12 11 10
27 26 26 27 29 31 34 36 36 35 34 34 35 36 37 39 41 42 42 40 36 32 28 24 23 22 20 18 15 13 13 12 9 5 6 8 10 11 12 12 11 10 9
21 21 23 26 29 31 32 31 30 29 31 33 34 36 37 39 38 36 32 28 25 22 21 20 20 20 18 15 12 11 10 9 5 4 6 9 11 11 11 10 9 8 7
18 21 23 24 25 25 24 24 26 28 31 33 34 35 35 33 30 26 23 22 21 20 19 19 19 18 15 13 12 10 7 5 3 5 8 9 10 10 9 9 8 7 6
Wind_Direction
276 278 279 287 292 288 283 282 284 287 287 286 284 284 286 289 292 294 296 298 298 298 299 300 300 300 298 296 296 295 292 290 287 285 284 284 285 286 286 286 286 286 286
275 279 282 284 286 282 279 279 281 283 284 284 282 282 284 286 288 287 289 291 294 295 295 298 298 298 296 295 294 291 290 287 286 285 284 283 284 285 286 286 286 286 285
272 276 280 280 280 276 274 276 277 279 281 282 281 281 282 284 287 286 284 284 287 290 292 296 297 297 295 295 294 293 291 289 288 286 286 285 284 284 285 287 287 288 288
273 276 277 275 275 272 270 272 273 276 279 279 279 280 282 284 286 286 283 280 283 285 289 293 295 295 295 296 295 295 294 292 291 289 287 286 286 284 284 286 288 290 290
275 276 273 269 269 269 270 271 272 274 276 276 276 279 282 283 286 287 286 284 284 285 288 290 291 292 294 295 294 294 293 292 291 289 288 288 288 288 288 288 289 290 291
273 272 271 268 267 269 271 271 271 272 273 275 277 280 283 284 287 288 289 287 286 287 288 289 290 292 294 294 294 294 292 291 290 289 289 290 291 292 293 292 292 292 293
265 270 271 268 268 270 270 271 272 273 275 277 279 281 283 285 287 288 289 289 289 291 290 292 294 297 298 297 297 294 292 291 291 291 292 292 294 295 296 296 295 294 294
269 270 268 268 267 268 270 273 275 277 279 280 282 283 283 284 285 287 290 291 292 295 296 297 299 300 299 298 296 294 292 292 292 292 293 294 296 297 296 296 295 294 294
271 267 265 264 264 267 270 273 276 278 281 283 284 284 284 284 284 290 294 296 298 301 301 301 301 300 298 296 295 294 294 295 295 295 296 297 297 297 296 296 295 295 293
276 272 267 264 263 265 269 273 277 280 283 285 285 285 286 287 290 294 297 299 300 301 301 301 300 300 299 298 297 296 295 296 297 299 299 299 298 297 296 296 295 295 294
278 269 264 263 264 267 272 276 280 282 284 286 288 289 289 292 295 297 299 299 299 298 297 297 297 299 300 299 298 297 296 298 299 300 300 299 298 297 296 296 296 295 294
273 267 263 262 265 269 275 281 283 285 288 291 291 292 293 295 296 297 298 297 296 294 294 295 297 298 299 298 297 297 298 300 300 300 299 299 298 298 297 297 296 295 294
270 271 268 268 269 272 277 281 285 289 292 294 295 295 295 295 296 297 296 295 294 294 295 293 294 295 297 297 297 298 300 300 300 300 300 300 300 299 299 298 297 297 296
276 276 273 272 273 275 278 282 286 290 293 295 296 295 293 293 293 295 295 295 294 294 293 291 291 293 295 297 298 300 301 301 301 302 302 302 301 301 300 300 300 299 298
281 279 277 276 276 278 281 284 287 291 294 295 296 293 291 292 292 293 294 293 292 292 291 292 293 295 297 299 300 301 302 303 304 305 304 303 302 302 302 303 302 300 299
283 281 280 281 282 283 284 286 289 292 293 294 294 291 289 291 291 291 290 289 289 290 292 294 296 298 299 300 301 303 305 306 306 305 304 304 304 305 305 304 303 301 301
283 282 283 283 283 284 286 287 289 290 291 291 290 289 288 289 293 293 292 290 291 293 296 299 300 300 301 303 305 306 308 307 306 305 305 306 307 307 305 303 301 299 299
284 285 284 283 283 283 285 286 287 288 289 289 289 289 288 289 291 294 296 297 299 301 302 301 301 303 304 306 308 309 308 307 306 307 308 310 312 311 309 305 301 299 298
282 283 283 283 282 282 283 284 285 286 288 288 287 287 289 293 298 302 303 304 303 303 303 303 305 306 308 310 310 309 307 306 308 311 314 316 317 316 314 311 307 303 301
280 281 282 282 282 282 283 284 285 286 287 287 288 290 295 302 306 308 307 305 304 305 306 307 308 309 310 310 309 307 307 308 312 317 320 321 323 324 324 323 322 329 6
281 281 281 281 281 282 284 285 286 286 286 288 291 296 302 306 308 307 306 306 307 307 308 308 309 310 309 308 306 307 309 312 317 321 323 325 331 341 354 18 61 82 84
282 282 282 282 283 285 286 286 287 289 291 294 298 303 306 307 307 307 308 308 309 309 309 310 309 308 307 307 309 312 315 320 324 326 327 337 357 24 54 76 86 86 85
283 284 284 286 286 287 288 289 291 294 299 303 306 308 308 308 308 308 308 309 309 310 311 311 310 309 310 312 316 320 324 329 332 336 352 17 40 64 80 88 89 86 80
285 287 288 289 288 290 292 295 299 302 306 308 309 309 309 309 309 310 311 313 314 315 315 316 317 318 319 322 325 329 334 338 345 6 39 56 66 75 83 88 86 81 74
288 290 290 290 292 295 299 302 306 309 310 310 310 310 311 312 315 317 319 321 323 324 324 324 326 327 329 332 335 337 341 347 4 63 79 80 77 78 80 81 78 74 69
285 287 290 295 300 304 307 310 312 313 313 313 313 315 318 320 323 325 327 328 328 327 326 327 329 331 334 336 337 340 347 2 74 108 100 88 81 80 77 74 72 68 65
Height
5856 5852 5851 5852 5855 5855 5855 5854 5853 5853 5852 5851 5849 5848 5847 5846 5845 5842 5840 5838 5835 5832 5829 5827 5824 5820 5816 5813 5811 5808 5804 5801 5797 5794 5792 5789 5785 5780 5776 5772 5768 5765 5761
5849 5845 5847 5848 5849 5849 5849 5848 5847 5846 5845 5844 5843 5842 5841 5839 5838 5836 5833 5830 5827 5824 5821 5818 5815 5811 5807 5804 5801 5797 5793 5788 5783 5780 5777 5774 5772 5766 5761 5756 5752 5748 5745
5842 5841 5842 5842 5841 5841 5841 5841 5840 5838 5837 5836 5835 5834 5833 5831 5830 5828 5825 5822 5818 5816 5812 5809 5805 5801 5796 5792 5788 5784 5780 5776 5771 5766 5763 5759 5756 5753 5747 5740 5735 5731 5728
5835 5833 5834 5832 5832 5833 5834 5833 5832 5831 5830 5828 5827 5826 5824 5822 5820 5818 5815 5811 5809 5806 5803 5800 5795 5790 5785 5781 5776 5772 5768 5764 5759 5754 5749 5745 5741 5737 5734 5728 5721 5716 5712
5827 5824 5825 5825 5823 5824 5826 5826 5825 5823 5821 5820 5819 5817 5815 5813 5810 5807 5804 5801 5799 5796 5793 5789 5784 5779 5775 5771 5766 5761 5756 5751 5746 5740 5734 5729 5724 5719 5716 5713 5707 5702 5696
5819 5816 5816 5816 5815 5815 5817 5817 5816 5814 5813 5812 5810 5808 5806 5802 5799 5796 5793 5789 5788 5786 5782 5778 5773 5769 5764 5759 5755 5749 5744 5738 5732 5726 5720 5714 5709 5703 5698 5695 5690 5685 5679
5810 5808 5809 5809 5807 5807 5807 5807 5807 5806 5805 5804 5802 5799 5796 5793 5789 5786 5782 5778 5775 5774 5770 5766 5761 5757 5752 5747 5742 5736 5730 5724 5718 5712 5706 5700 5694 5687 5681 5676 5671 5667 5662
5804 5803 5802 5801 5801 5800 5800 5799 5799 5798 5797 5795 5792 5789 5786 5783 5779 5775 5773 5769 5764 5761 5758 5753 5748 5743 5738 5733 5727 5721 5715 5709 5703 5697 5691 5685 5679 5672 5665 5659 5653 5649 5646
5798 5796 5795 5794 5794 5793 5793 5792 5791 5790 5788 5786 5783 5780 5776 5773 5770 5766 5763 5759 5754 5749 5746 5740 5735 5730 5724 5719 5713 5706 5700 5694 5688 5682 5676 5670 5663 5655 5648 5641 5634 5629 5626
5791 5789 5788 5788 5787 5786 5786 5785 5784 5782 5780 5778 5775 5771 5767 5764 5760 5757 5753 5748 5742 5737 5731 5726 5721 5716 5710 5704 5698 5692 5686 5681 5674 5668 5661 5654 5646 5639 5631 5624 5617 5610 5605
5782 5782 5782 5781 5781 5780 5779 5778 5776 5774 5772 5768 5765 5762 5758 5754 5750 5746 5742 5736 5730 5725 5719 5713 5708 5702 5697 5691 5685 5679 5673 5667 5660 5653 5645 5638 5630 5622 5615 5607 5600 5593 5586
5775 5775 5775 5775 5774 5773 5772 5770 5767 5765 5762 5759 5755 5751 5747 5743 5739 5734 5729 5724 5718 5712 5706 5701 5695 5689 5684 5678 5672 5665 5659 5653 5645 5637 5630 5622 5614 5606 5598 5590 5583 5575 5568
5767 5768 5768 5767 5766 5765 5763 5761 5758 5755 5752 5748 5744 5740 5735 5731 5726 5721 5716 5710 5704 5699 5693 5687 5682 5676 5671 5665 5658 5652 5646 5638 5630 5622 5614 5606 5598 5590 5581 5573 5566 5559 5553
5760 5761 5760 5759 5757 5756 5754 5751 5748 5745 5741 5736 5732 5728 5723 5718 5713 5708 5703 5697 5691 5685 5679 5673 5667 5662 5658 5652 5644 5638 5631 5624 5616 5607 5599 5590 5581 5573 5565 5558 5551 5545 5540
5753 5752 5751 5750 5748 5746 5744 5741 5738 5733 5729 5724 5720 5715 5710 5705 5700 5695 5689 5683 5677 5671 5665 5659 5654 5649 5645 5638 5631 5625 5617 5609 5601 5592 5583 5574 5566 5557 5550 5545 5539 5534 5529
5744 5743 5742 5741 5739 5737 5734 5730 5726 5722 5717 5712 5707 5702 5697 5692 5687 5682 5676 5670 5663 5657 5651 5646 5641 5636 5631 5625 5618 5611 5603 5595 5586 5578 5568 5560 5552 5546 5540 5535 5529 5524 5519
5734 5734 5732 5730 5728 5725 5722 5718 5714 5710 5705 5700 5695 5690 5685 5680 5674 5668 5662 5656 5649 5644 5639 5635 5630 5625 5620 5612 5604 5597 5589 5581 5572 5564 5556 5549 5542 5536 5531 5526 5521 5516 5512
5723 5722 5720 5717 5715 5712 5709 5705 5701 5697 5693 5689 5684 5679 5673 5668 5662 5656 5650 5644 5638 5633 5628 5624 5618 5612 5606 5599 5591 5584 5576 5568 5560 5553 5546 5540 5533 5527 5522 5517 5513 5510 5508
5711 5709 5707 5704 5702 5699 5696 5693 5689 5685 5681 5677 5672 5667 5662 5656 5650 5643 5638 5633 5628 5623 5617 5612 5605 5599 5592 5587 5579 5572 5564 5557 5551 5544 5538 5532 5526 5521 5515 5511 5509 5507 5506
5700 5698 5695 5693 5690 5687 5685 5682 5678 5674 5670 5666 5661 5656 5650 5644 5638 5632 5627 5622 5617 5611 5605 5599 5593 5586 5580 5574 5568 5561 5555 5549 5543 5538 5532 5527 5521 5516 5512 5509 5507 5506 5506
5689 5687 5685 5682 5680 5677 5674 5671 5668 5664 5660 5655 5650 5645 5638 5633 5628 5623 5617 5612 5606 5600 5594 5588 5582 5575 5569 5563 5558 5553 5548 5542 5538 5534 5529 5524 5519 5515 5512 5509 5508 5508 5507
5679 5677 5675 5673 5670 5668 5665 5662 5658 5654 5650 5645 5640 5634 5629 5623 5618 5613 5607 5601 5595 5589 5583 5576 5570 5565 5559 5555 5550 5545 5541 5537 5534 5531 5527 5523 5519 5516 5514 5512 5511 5511 5510
5671 5669 5667 5665 5663 5660 5657 5654 5650 5645 5640 5635 5630 5625 5620 5615 5609 5603 5597 5591 5584 5578 5572 5567 5562 5557 5552 5548 5544 5540 5537 5534 5532 5529 5526 5523 5521 5518 5517 5515 5515 5515 5514
5665 5663 5661 5659 5656 5653 5649 5645 5641 5636 5631 5627 5622 5618 5613 5607 5600 5594 5587 5581 5575 5569 5564 5560 5555 5551 5547 5543 5540 5537 5535 5533 5531 5529 5527 5525 5523 5521 5520 5519 5519 5518 5517
5659 5657 5655 5653 5650 5646 5642 5638 5634 5629 5625 5620 5615 5610 5605 5598 5591 5584 5578 5573 5568 5563 5559 5555 5551 5547 5543 5540 5537 5535 5533 5532 5530 5530 5529 5527 5526 5525 5524 5523 5522 5521 5521
5655 5653 5651 5648 5644 5641 5637 5633 5628 5624 5619 5614 5608 5602 5596 5589 5584 5578 5573 5568 5564 5559 5555 5551 5547 5544 5541 5538 5536 5534 5533 5531 5531 5531 5531 5530 5529 5528 5528 5527 5526 5525 5523